Location: Anjeux
(47.8815°N, 6.2076°E)
Time: 21:40:58
(UTC+00:00)

NOSS 3-2 (A) - Pass Details

Date: 05 March 2021
Orbit: 779 x 1428 km, 63.4° (Epoch: 18 April)

Event Time Altitude Azimuth Distance (km) Brightness Sun altitude
Rises 04:43:16 0° 317° (NW) 3,978 6.4 -15.0°
Reaches altitude 10° 04:45:53 10° 313° (NW) 3,103 5.8 -14.6°
Maximum altitude 04:53:13 55° 239° (WSW) 1,530 4.2 -13.4°
Drops below altitude 10° 05:01:28 10° 165° (SSE) 3,468 6.5 -12.0°
Sets 05:04:33 0° 161° (SSE) 4,475 7.2 -11.5°
